NOAA 16 DEB, 41236

Orbit data source: Space-Track

NOAA 16 DEB, 41236 is space debris in SSO originally from a launch on Thu, 21 Sep 2000 UTC launched from the Air Force Western Test Range (AFWTR). Debris objects in space refer to the collection of defunct objects orbiting the Earth. Examples of debris include non-operational satellites, rocket bodies, and fragments generated from explosions, collisions, or faulty payload assembly.

Loading next visibility...
Identifier
41236, 2000-055ER
Orbit
SSO
Country
Flag of USUS
Related business
Manufacturer
Unknown
Mission
Spacecraft
Bus & Motor
Unknown
Mass
Unknown
Launch date (UTC)
2000-09-21 (25 years ago)
Launch vehicle
Unknown
Launch site
Air Force Western Test Range (AFWTR)
Object type
Payload
Rocket body
Debris
Shape & HBR
Unknown shape, 0.1 m
Radar Cross Section
Small (<0.1 m²)

Expand to show TLE details & history
Last TLE update: 2 days ago

TLE from 2 days ago
0 NOAA 16 DEB
1 41236U 00055ER  25285.60397854  .00010783  00000-0  29831-2 0  9994
2 41236  99.0639 158.9334 0032489 124.4606 235.9661 14.46538225511881
Epoch: 2025-10-12T14:29Z
TLE epoch observation values (Epoch: 2025-10-12T14:29:43.745Z)
Latitude
-0.00004°
Longitude
-79.9176°
Altitude
752.909 km
Speed
7.471 km/s
True Right ascension
10h 35m 44s
True Declination
0° 00' 00"
Sunlit
Object was in daylight at epoch
Visualization orbit readout
Latitude
Unknown
Longitude
Unknown
Altitude
Unknown
Speed
Unknown
Apparent Right ascension
Unknown
Apparent Declination
Unknown
Sunlit
N/A
Visualization observer readout
Local Sidereal Time
05:45:32
Azimuth
Unknown
Elevation
Unknown
Doppler factor
Unknown
Orbital elements
Apogee altitude
757.225 km
Perigee altitude
711.011 km
Semi-major axis
7,112.255 km
Eccentricity
0.00325
Inclination
99.0639°
RAAN
158.9334°
Arg. of periapsis
124.4606°
True anomaly
235.65828°
Mean anomaly
235.9661°
Eccentric anomaly
235.81212°
Mean motion
3.61853 °/min
Orbital period
99.49 mins
BSTAR
0.0029831
Loading maneuver chart data...
Computing Atmospheric mass density...
Loading historical data...
Loading historical data...
Loading historical data...
Loading historical data...
Loading historical data...
Loading historical data...
Loading historical data...

Documentation

Showing up to 5 results
|